When you browse on this site, cookies collect data to enhance your experience and personalize the content and advertising you see.
Visit our Privacy Policy to learn more. By continuing to use the site, you agree to this use of cookies and data.
  • In Hungary
  • List of Countries
  • For 7 days
  • Water Temperature
  • Satellite Maps
  • Weather Map
  • News
  • Weather Widgets
  • user-avatar
    Login

    Hourly Weather Sankt Andra

    Today, 18 March, Monday

    Time Temperature Precipitation Wind Pressure Humidity
    00:00 +8°C° 0 mm 1 mps 720 mmHg 93%
    01:00 +9°C° 0 mm 1 mps 720 mmHg 90%
    02:00 +8°C° 1.3 mm 2 mps 721 mmHg 89%
    03:00 +7°C° 1.3 mm 2 mps 721 mmHg 87%
    04:00 +7°C° 1.3 mm 2 mps 721 mmHg 86%
    05:00 +6°C° 1.8 mm 2 mps 722 mmHg 86%
    06:00 +6°C° 1.8 mm 1 mps 722 mmHg 87%
    07:00 +5°C° 0 mm 1 mps 723 mmHg 86%
    08:00 +5°C° 1.1 mm 1 mps 723 mmHg 86%
    09:00 +5°C° 1.1 mm 1 mps 724 mmHg 87%
    10:00 +5°C° 1.1 mm 1 mps 724 mmHg 87%
    11:00 +5°C° 0.8 mm 1 mps 725 mmHg 86%
    12:00 +6°C° 0.8 mm 1 mps 725 mmHg 84%
    13:00 +6°C° 0.8 mm 1 mps 725 mmHg 82%
    14:00 +6°C° 0.7 mm 1 mps 725 mmHg 84%
    15:00 +6°C° 0.7 mm 1 mps 726 mmHg 85%
    16:00 +6°C° 0.7 mm 1 mps 726 mmHg 87%
    17:00 +4°C° 0.1 mm 0 mps 726 mmHg 88%
    18:00 +4°C° 0.1 mm 0 mps 726 mmHg 90%
    19:00 +3°C° 0.1 mm 0 mps 727 mmHg 92%
    20:00 +3°C° 0 mm 0 mps 727 mmHg 92%
    21:00 +3°C° 0 mm 1 mps 728 mmHg 92%
    22:00 +2°C° 0 mm 1 mps 728 mmHg 91%
    23:00 +2°C° 0 mm 1 mps 728 mmHg 91%

    Tomorrow, 19 March, Tuesday

    Time Temperature Precipitation Wind Pressure Humidity
    00:00 +2°C° 0 mm 1 mps 729 mmHg 90%
    01:00 +2°C° 0 mm 1 mps 729 mmHg 89%
    02:00 +2°C° 0 mm 1 mps 729 mmHg 89%
    03:00 +2°C° 0 mm 1 mps 729 mmHg 88%
    04:00 +2°C° 0 mm 1 mps 729 mmHg 88%
    05:00 +3°C° 0 mm 1 mps 729 mmHg 88%
    06:00 +3°C° 0 mm 1 mps 729 mmHg 87%
    07:00 +3°C° 0 mm 1 mps 730 mmHg 87%
    08:00 +4°C° 0 mm 1 mps 730 mmHg 82%
    09:00 +6°C° 0 mm 1 mps 730 mmHg 77%
    10:00 +7°C° 0 mm 1 mps 731 mmHg 72%
    11:00 +7°C° 0.1 mm 1 mps 731 mmHg 71%
    12:00 +8°C° 0.1 mm 1 mps 730 mmHg 70%
    13:00 +8°C° 0.1 mm 1 mps 730 mmHg 69%
    14:00 +8°C° 0.1 mm 1 mps 730 mmHg 70%
    15:00 +8°C° 0.1 mm 1 mps 730 mmHg 71%
    16:00 +8°C° 0.1 mm 1 mps 730 mmHg 72%
    17:00 +7°C° 0 mm 1 mps 731 mmHg 77%
    18:00 +5°C° 0 mm 1 mps 731 mmHg 82%
    19:00 +4°C° 0 mm 1 mps 732 mmHg 86%
    20:00 +3°C° 0 mm 1 mps 732 mmHg 87%
    21:00 +3°C° 0 mm 1 mps 733 mmHg 88%
    22:00 +2°C° 0 mm 1 mps 734 mmHg 89%
    23:00 +2°C° 0 mm 1 mps 734 mmHg 89%

    Day after tomorrow, 20 March, Wednesday

    Time Temperature Precipitation Wind Pressure Humidity
    00:00 +2°C° 0 mm 1 mps 734 mmHg 89%
    01:00 +1°C° 0 mm 1 mps 734 mmHg 89%
    02:00 +1°C° 0 mm 1 mps 734 mmHg 89%
    03:00 +1°C° 0 mm 1 mps 735 mmHg 89%
    04:00 0°C° 0 mm 1 mps 735 mmHg 89%
    05:00 +1°C° 0 mm 1 mps 735 mmHg 88%
    06:00 +1°C° 0 mm 1 mps 735 mmHg 87%
    07:00 +1°C° 0 mm 1 mps 736 mmHg 86%
    08:00 +3°C° 0 mm 1 mps 736 mmHg 79%
    09:00 +6°C° 0 mm 1 mps 736 mmHg 72%
    10:00 +8°C° 0 mm 1 mps 736 mmHg 66%
    11:00 +9°C° 0 mm 1 mps 736 mmHg 63%
    12:00 +10°C° 0 mm 1 mps 736 mmHg 60%
    13:00 +10°C° 0 mm 1 mps 736 mmHg 57%
    14:00 +10°C° 0 mm 1 mps 736 mmHg 58%
    15:00 +10°C° 0 mm 1 mps 735 mmHg 59%
    16:00 +10°C° 0 mm 1 mps 735 mmHg 60%
    17:00 +8°C° 0 mm 1 mps 736 mmHg 67%
    18:00 +6°C° 0 mm 1 mps 736 mmHg 74%
    19:00 +4°C° 0 mm 1 mps 736 mmHg 81%
    20:00 +3°C° 0 mm 1 mps 737 mmHg 82%
    21:00 +3°C° 0 mm 1 mps 737 mmHg 83%
    22:00 +2°C° 0 mm 1 mps 737 mmHg 84%
    23:00 +2°C° 0 mm 1 mps 737 mmHg 85%

    21 March, Thursday

    Time Temperature Precipitation Wind Pressure Humidity
    00:00 +2°C° 0 mm 1 mps 737 mmHg 85%
    01:00 +2°C° 0 mm 1 mps 737 mmHg 86%
    02:00 +2°C° 0 mm 1 mps 737 mmHg 86%
    03:00 +1°C° 0 mm 1 mps 737 mmHg 86%
    04:00 +1°C° 0 mm 1 mps 737 mmHg 86%
    05:00 +2°C° 0 mm 1 mps 737 mmHg 84%
    06:00 +2°C° 0 mm 1 mps 737 mmHg 83%
    07:00 +3°C° 0 mm 1 mps 737 mmHg 81%
    08:00 +5°C° 0 mm 1 mps 737 mmHg 72%
    09:00 +8°C° 0 mm 1 mps 737 mmHg 63%
    10:00 +10°C° 0 mm 1 mps 737 mmHg 54%
    11:00 +11°C° 0 mm 1 mps 737 mmHg 51%
    12:00 +12°C° 0 mm 1 mps 737 mmHg 48%
    13:00 +13°C° 0 mm 1 mps 736 mmHg 45%
    14:00 +13°C° 0 mm 1 mps 736 mmHg 46%
    15:00 +13°C° 0 mm 1 mps 735 mmHg 47%
    16:00 +12°C° 0 mm 1 mps 735 mmHg 49%
    17:00 +10°C° 0 mm 1 mps 735 mmHg 56%
    18:00 +8°C° 0 mm 1 mps 735 mmHg 63%
    19:00 +5°C° 0 mm 0 mps 735 mmHg 71%
    20:00 +5°C° 0 mm 1 mps 735 mmHg 71%
    21:00 +5°C° 0 mm 1 mps 735 mmHg 71%
    22:00 +4°C° 0 mm 1 mps 736 mmHg 71%
    23:00 +4°C° 0 mm 1 mps 735 mmHg 71%

    22 March, Friday

    Time Temperature Precipitation Wind Pressure Humidity
    00:00 +4°C° 0 mm 1 mps 735 mmHg 70%
    01:00 +4°C° 0 mm 1 mps 735 mmHg 70%
    02:00 +4°C° 0 mm 1 mps 735 mmHg 69%
    03:00 +4°C° 0 mm 1 mps 735 mmHg 68%
    04:00 +3°C° 0 mm 1 mps 735 mmHg 68%
    05:00 +4°C° 0 mm 1 mps 735 mmHg 66%
    06:00 +5°C° 0 mm 1 mps 735 mmHg 65%
    07:00 +5°C° 0 mm 1 mps 735 mmHg 63%
    08:00 +7°C° 0 mm 0 mps 735 mmHg 56%
    09:00 +10°C° 0 mm 0 mps 735 mmHg 49%
    10:00 +14°C° 0 mm 0 mps 735 mmHg 43%
    11:00 +15°C° 0 mm 0 mps 735 mmHg 41%
    12:00 +16°C° 0 mm 0 mps 735 mmHg 40%
    13:00 +19°C° 0 mm 1 mps 734 mmHg 38%
    14:00 +18°C° 0 mm 1 mps 734 mmHg 40%
    15:00 +18°C° 0 mm 1 mps 734 mmHg 42%
    16:00 +18°C° 0 mm 1 mps 733 mmHg 45%
    17:00 +14°C° 0 mm 1 mps 734 mmHg 53%
    18:00 +10°C° 0 mm 0 mps 734 mmHg 61%
    19:00 +8°C° 0 mm 0 mps 734 mmHg 69%
    20:00 +7°C° 0 mm 0 mps 734 mmHg 70%
    21:00 +8°C° 0 mm 1 mps 735 mmHg 72%
    22:00 +7°C° 0 mm 1 mps 735 mmHg 74%
    23:00 +7°C° 0 mm 1 mps 735 mmHg 75%

    23 March, Saturday

    Time Temperature Precipitation Wind Pressure Humidity
    00:00 +7°C° 0 mm 1 mps 735 mmHg 76%
    01:00 +7°C° 0 mm 1 mps 735 mmHg 77%
    02:00 +7°C° 0 mm 1 mps 735 mmHg 78%
    03:00 +6°C° 0 mm 1 mps 735 mmHg 78%
    04:00 +6°C° 0 mm 1 mps 734 mmHg 78%
    05:00 +7°C° 0 mm 1 mps 735 mmHg 77%
    06:00 +7°C° 0 mm 1 mps 735 mmHg 75%
    07:00 +8°C° 0 mm 1 mps 735 mmHg 74%
    08:00 +11°C° 0 mm 1 mps 735 mmHg 66%
    09:00 +14°C° 0 mm 1 mps 735 mmHg 58%
    10:00 +18°C° 0 mm 1 mps 735 mmHg 50%
    11:00 +18°C° 0 mm 1 mps 734 mmHg 48%
    12:00 +19°C° 0 mm 1 mps 734 mmHg 47%
    13:00 +20°C° 0 mm 1 mps 733 mmHg 45%
    14:00 +20°C° 0 mm 1 mps 733 mmHg 46%
    15:00 +19°C° 0 mm 1 mps 733 mmHg 47%
    16:00 +19°C° 0 mm 1 mps 732 mmHg 49%
    17:00 +16°C° 0 mm 1 mps 732 mmHg 58%
    18:00 +12°C° 0 mm 0 mps 732 mmHg 67%
    19:00 +10°C° 0 mm 0 mps 732 mmHg 76%
    20:00 +9°C° 0 mm 0 mps 732 mmHg 78%
    21:00 +9°C° 0 mm 0 mps 733 mmHg 79%
    22:00 +8°C° 0 mm 0 mps 733 mmHg 81%
    23:00 +8°C° 0 mm 0 mps 733 mmHg 81%
    Show more